Wetterstats.de || Aktuelle Messwerte || Aktuelle Wetterkarten NEU! || Radar / Satellit NEU! || Wetterarchiv || Langzeitwerte NEU! || Klim. Kenntage || Met. Ereignisse || Agrarwerte || Echtzeitwerte

Monatsübersicht für Juni 2020 Diagramm
 
Wetter Information zur Wetteranzeige
Zeitraffer
Tageslänge (hh:mm)
Höchsttemperatur in °C
Uhrzeit
Tiefsttemperatur in °C
Uhrzeit
Luftfeuchte (max., in %)
Uhrzeit
Luftfeuchte (min., in %)
Uhrzeit
Luftdruck (max., in hPa)
Uhrzeit
Luftdruck (min., in hPa)
Uhrzeit
Luftdruck (Ø, in hPa)
Regenrate (max, mm/h)
Uhrzeit
Niederschlag in mm
Verdunstung in mm
Solar in W/m² (Ø)
Solar in W/m² (max.)
UV-Index (max.)
Sonnenscheindauer (hh:mm)
Windrichtung (Ø)
Windstärke (Ø in km/h)
Windstärke (Ø in bft)
Windböe (max., in km/h)
Uhrzeit
Windböe (max., in bft)
Uhrzeit
Taupunkt (max., in °C)
Uhrzeit
Taupunkt (min., in °C)
Uhrzeit
Windchill (min., in °C)
Uhrzeit
Gewitterindex (max.)
Uhrzeit
Waldbrandindex (max.)
Uhrzeit
Graslandfeuerindex (max.)
Uhrzeit
Staubsturm-Index (max.)
Uhrzeit
01
Zeitraffer
16:35
23.9
16:10 Uhr
8.5
05:10 Uhr

87
04:50 Uhr
35
14:55 Uhr
1022.8
08:45 Uhr

1019.9
18:15 Uhr
1021.4
0,000
00:00 Uhr
0,000
6.020
478
879
13:00 Uhr
6.0
12:25 Uhr

12:50:00
8,3
2
30,6
13:50 Uhr

5
9.7
19:40 Uhr
6.5
04:45 Uhr
8.1
07:05 Uhr
2
19:25 Uhr

00:00 Uhr

00:00 Uhr

00:00 Uhr
02
Zeitraffer
16:37
26.6
16:15 Uhr
10.5
05:20 Uhr

73
05:25 Uhr
37
17:30 Uhr
1020.6
00:05 Uhr

1009.5
23:45 Uhr
1015.2
0,000
00:00 Uhr
0,000
5.486
394
1048
14:30 Uhr
6.2
13:25 Uhr

08:45:00
7,5
2
46,7
15:35 Uhr

6
12.1
16:10 Uhr
5.6
03:45 Uhr
10.5
05:20 Uhr
3
12:50 Uhr

00:00 Uhr

00:00 Uhr

00:00 Uhr
03
Zeitraffer
16:39
24.0
15:40 Uhr
10.3
05:30 Uhr

82
05:30 Uhr
31
17:10 Uhr
1009.5
00:00 Uhr

1000.8
23:45 Uhr
1005.2
0,000
00:00 Uhr
0,000
5.766
481
884
13:25 Uhr
5.9
12:30 Uhr

12:35:00
5,4
1
20,9
14:00 Uhr

4
10.1
00:10 Uhr
4.7
12:20 Uhr
10.3
05:30 Uhr
2
00:00 Uhr

00:00 Uhr

00:00 Uhr

00:00 Uhr
04
Zeitraffer
16:41
25.0
14:10 Uhr
12.2
04:55 Uhr

91
23:45 Uhr
35
13:15 Uhr
1000.8
00:00 Uhr

991.1
23:15 Uhr
995.4
2,400
22:20 Uhr
0,200
5.258
382
970
13:50 Uhr
5.4
14:05 Uhr

09:40:00
9,0
2
38,6
12:05 Uhr

5
14.6
23:45 Uhr
6.5
05:20 Uhr
11.4
06:45 Uhr
8
22:20 Uhr

00:00 Uhr

00:00 Uhr

00:00 Uhr
05
Zeitraffer
16:43
18.6
14:45 Uhr
12.2
23:55 Uhr

96
02:15 Uhr
47
19:50 Uhr
995.0
15:35 Uhr

990.5
02:35 Uhr
993.3
4,800
23:35 Uhr
0,800
3.327
276
1150
14:10 Uhr
6.5
13:15 Uhr

04:45:00
8,2
2
37,0
23:30 Uhr

5
14.9
02:20 Uhr
5.8
19:50 Uhr
8.8
23:45 Uhr
9
02:20 Uhr

00:00 Uhr

00:00 Uhr

00:00 Uhr
06
Zeitraffer
16:44
19.7
17:15 Uhr
8.9
05:25 Uhr

90
00:45 Uhr
47
13:25 Uhr
1004.7
23:45 Uhr

994.3
00:00 Uhr
1000.7
2,400
00:25 Uhr
0,400
4.521
351
1095
11:30 Uhr
6.5
13:30 Uhr

07:20:00
9,9
2
40,2
15:10 Uhr

5
10.0
00:45 Uhr
6.1
13:10 Uhr
5.9
03:10 Uhr
2
00:00 Uhr

00:00 Uhr

00:00 Uhr

00:00 Uhr
07
Zeitraffer
16:45
18.5
13:50 Uhr
9.3
04:50 Uhr

94
23:35 Uhr
70
00:00 Uhr
1009.5
23:40 Uhr

1004.6
00:00 Uhr
1006.7
2,400
12:45 Uhr
1,200
1.753
157
863
13:50 Uhr
5.4
13:45 Uhr

00:20:00
4,2
1
22,5
15:50 Uhr

4
14.4
13:50 Uhr
6.9
04:50 Uhr
9.3
04:50 Uhr
0
00:00 Uhr

00:00 Uhr

00:00 Uhr

00:00 Uhr
08
Zeitraffer
16:46
22.0
16:15 Uhr
10.8
23:55 Uhr

99
04:25 Uhr
42
16:35 Uhr
1014.0
23:50 Uhr

1009.3
00:15 Uhr
1011.6
4,800
01:05 Uhr
2,400
3.988
384
1179
13:50 Uhr
6.6
12:45 Uhr

08:20:00
4,4
1
20,9
15:50 Uhr

4
12.9
07:25 Uhr
7.9
16:40 Uhr
10.8
23:55 Uhr
0
00:00 Uhr

00:00 Uhr

00:00 Uhr

00:00 Uhr
09
Zeitraffer
16:48
22.8
12:40 Uhr
8.3
03:40 Uhr

94
03:35 Uhr
42
12:35 Uhr
1015.5
09:30 Uhr

1013.5
18:35 Uhr
1014.5
0,000
00:00 Uhr
0,000
3.734
305
1002
12:50 Uhr
6.6
12:50 Uhr

06:25:00
5,0
1
22,5
20:55 Uhr

4
13.0
09:45 Uhr
7.3
03:30 Uhr
8.3
03:40 Uhr
0
00:00 Uhr

00:00 Uhr

00:00 Uhr

00:00 Uhr
10
Zeitraffer
16:49
22.3
14:10 Uhr
10.4
05:30 Uhr

91
23:55 Uhr
45
12:50 Uhr
1014.6
00:00 Uhr

1010.2
18:30 Uhr
1012.4
0,000
00:00 Uhr
0,000
4.978
404
1060
12:35 Uhr
6.6
12:35 Uhr

08:40:00
7,7
2
27,4
10:35 Uhr

4
14.4
23:50 Uhr
8.2
04:10 Uhr
10.4
05:30 Uhr
0
00:00 Uhr

00:00 Uhr

00:00 Uhr

00:00 Uhr
11
Zeitraffer
16:50
22.6
17:45 Uhr
15.2
02:50 Uhr

100
05:15 Uhr
77
19:00 Uhr
1010.5
00:00 Uhr

1008.3
18:05 Uhr
1009.3
4,800
15:30 Uhr
2,200
1.854
178
615
16:55 Uhr
3.9
12:40 Uhr

02:40:00
4,4
1
17,7
17:40 Uhr

3
19.0
16:50 Uhr
14.5
00:00 Uhr
15.2
02:50 Uhr
0
00:00 Uhr

00:00 Uhr

00:00 Uhr

00:00 Uhr
12
Zeitraffer
16:51
29.3
16:45 Uhr
14.9
03:00 Uhr

100
03:15 Uhr
48
17:20 Uhr
1011.3
08:45 Uhr

1008.0
18:15 Uhr
1009.7
0,000
00:00 Uhr
0,000
4.877
395
1081
13:25 Uhr
6.2
12:45 Uhr

08:00:00
7,2
2
29,0
14:40 Uhr

4
20.6
11:55 Uhr
14.7
02:00 Uhr
14.0
03:15 Uhr
0
00:00 Uhr

00:00 Uhr

00:00 Uhr

00:00 Uhr
13
Zeitraffer
16:52
33.4
14:45 Uhr
18.1
23:55 Uhr

97
21:35 Uhr
47
15:25 Uhr
1011.5
17:55 Uhr

1007.0
15:20 Uhr
1009.4
16,800
20:35 Uhr
12,200
4.191
374
976
12:35 Uhr
5.6
12:00 Uhr

06:20:00
6,8
1
37,0
15:55 Uhr

5
23.5
13:55 Uhr
17.4
18:25 Uhr
16.5
20:10 Uhr
11
12:00 Uhr

00:00 Uhr

00:00 Uhr

00:00 Uhr
14
Zeitraffer
16:53
26.1
14:35 Uhr
17.6
05:20 Uhr

98
01:35 Uhr
41
17:50 Uhr
1011.8
23:50 Uhr

1009.9
00:05 Uhr
1010.6
0,000
00:00 Uhr
0,000
4.978
379
1176
12:05 Uhr
6.8
12:10 Uhr

07:55:00
7,8
2
27,4
15:45 Uhr

4
18.1
01:35 Uhr
10.5
20:50 Uhr
16.5
07:10 Uhr
9
00:00 Uhr

00:00 Uhr

00:00 Uhr

00:00 Uhr
15
Zeitraffer
16:53
24.6
15:05 Uhr
12.1
05:05 Uhr

91
05:10 Uhr
41
12:50 Uhr
1014.3
23:55 Uhr

1011.8
00:00 Uhr
1012.9
0,000
00:00 Uhr
0,000
5.639
465
993
15:00 Uhr
6.5
12:40 Uhr

12:00:00
5,5
1
24,1
13:30 Uhr

4
14.4
10:25 Uhr
9.1
12:55 Uhr
12.1
05:05 Uhr
2
00:00 Uhr

00:00 Uhr

00:00 Uhr

00:00 Uhr


 
Wetter Information zur Wetteranzeige
Zeitraffer
Tageslänge (hh:mm)
Höchsttemperatur in °C
Uhrzeit
Tiefsttemperatur in °C
Uhrzeit
Luftfeuchte (max., in %)
Uhrzeit
Luftfeuchte (min., in %)
Uhrzeit
Luftdruck (max., in hPa)
Uhrzeit
Luftdruck (min., in hPa)
Uhrzeit
Luftdruck (Ø, in hPa)
Regenrate (max, mm/h)
Uhrzeit
Niederschlag in mm
Verdunstung in mm
Solar in W/m² (Ø)
Solar in W/m² (max.)
UV-Index (max.)
Sonnenscheindauer (hh:mm)
Windrichtung (Ø)
Windstärke (Ø in km/h)
Windstärke (Ø in bft)
Windböe (max., in km/h)
Uhrzeit
Windböe (max., in bft)
Uhrzeit
Taupunkt (max., in °C)
Uhrzeit
Taupunkt (min., in °C)
Uhrzeit
Windchill (min., in °C)
Uhrzeit
Gewitterindex (max.)
Uhrzeit
Waldbrandindex (max.)
Uhrzeit
Graslandfeuerindex (max.)
Uhrzeit
Staubsturm-Index (max.)
Uhrzeit
16
Zeitraffer
16:54
27.1
16:45 Uhr
10.9
05:00 Uhr

95
05:40 Uhr
43
18:15 Uhr
1014.4
00:15 Uhr

1010.9
18:10 Uhr
1012.9
0,000
00:00 Uhr
0,000
4.928
407
1083
13:15 Uhr
6.8
12:35 Uhr

09:35:00
3,0
1
17,7
14:00 Uhr

3
14.7
11:20 Uhr
10.0
04:15 Uhr
10.9
05:00 Uhr
3
15:05 Uhr

00:00 Uhr

00:00 Uhr

00:00 Uhr
17
Zeitraffer
16:54
28.9
15:00 Uhr
13.3
05:15 Uhr

93
04:55 Uhr
40
18:20 Uhr
1011.6
00:00 Uhr

1007.6
20:50 Uhr
1009.9
0,000
00:00 Uhr
0,000
4.928
388
1185
12:55 Uhr
6.9
12:55 Uhr

08:45:00
4,2
1
22,5
14:20 Uhr

4
15.7
15:05 Uhr
12.2
04:50 Uhr
13.3
05:15 Uhr
5
09:05 Uhr

00:00 Uhr

00:00 Uhr

00:00 Uhr
18
Zeitraffer
16:54
26.1
15:25 Uhr
17.0
05:10 Uhr

79
05:20 Uhr
51
15:25 Uhr
1008.7
00:25 Uhr

1007.1
16:00 Uhr
1007.9
0,000
00:00 Uhr
0,000
3.785
287
990
14:35 Uhr
6.8
14:05 Uhr

05:10:00
6,1
1
29,0
20:00 Uhr

4
17.5
14:20 Uhr
13.1
05:10 Uhr
16.3
05:40 Uhr
6
13:05 Uhr

00:00 Uhr

00:00 Uhr

00:00 Uhr
19
Zeitraffer
16:55
21.4
17:10 Uhr
15.8
04:10 Uhr

89
22:55 Uhr
69
13:15 Uhr
1012.2
23:30 Uhr

1008.4
00:15 Uhr
1010.2
0,000
00:00 Uhr
0,000
2.438
204
635
17:05 Uhr
4.2
12:25 Uhr

02:00:00
5,8
1
35,4
17:50 Uhr

5
16.0
17:05 Uhr
13.6
02:05 Uhr
15.7
02:10 Uhr
6
14:05 Uhr

00:00 Uhr

00:00 Uhr

00:00 Uhr
20
Zeitraffer
16:55
17.9
11:30 Uhr
14.7
15:40 Uhr

96
04:55 Uhr
84
10:35 Uhr
1015.8
21:45 Uhr

1012.1
00:05 Uhr
1013.7
2,400
13:30 Uhr
0,800
0.965
89
367
11:30 Uhr
2.5
11:30 Uhr

00:00:00
6,5
1
32,2
13:45 Uhr

5
16.1
06:30 Uhr
13.6
15:40 Uhr
12.4
14:50 Uhr
7
00:00 Uhr

00:00 Uhr

00:00 Uhr

00:00 Uhr
21
Zeitraffer
16:55
17.6
18:10 Uhr
14.6
05:35 Uhr

98
12:35 Uhr
92
19:05 Uhr
1017.9
22:20 Uhr

1014.8
04:50 Uhr
1016.2
9,600
11:00 Uhr
4,400
0.635
67
185
18:05 Uhr
1.1
12:10 Uhr

00:00:00
5,3
1
32,2
00:40 Uhr

5
16.6
17:40 Uhr
14.1
05:35 Uhr
12.7
05:55 Uhr
6
11:05 Uhr

00:00 Uhr

00:00 Uhr

00:00 Uhr
22
Zeitraffer
16:54
26.6
14:20 Uhr
12.2
05:25 Uhr

99
02:55 Uhr
41
14:20 Uhr
1022.0
23:40 Uhr

1017.3
02:20 Uhr
1019.0
0,000
00:00 Uhr
0,000
5.232
395
1023
13:05 Uhr
6.4
12:40 Uhr

10:05:00
6,4
1
38,6
16:20 Uhr

5
15.9
00:05 Uhr
8.7
21:20 Uhr
12.2
05:25 Uhr
7
00:00 Uhr

00:00 Uhr

00:00 Uhr

00:00 Uhr
23
Zeitraffer
16:54
23.7
15:50 Uhr
10.8
04:10 Uhr

87
04:20 Uhr
36
16:00 Uhr
1023.9
23:35 Uhr

1022.1
00:00 Uhr
1022.9
0,000
00:00 Uhr
0,000
5.893
484
1095
12:50 Uhr
6.9
12:35 Uhr

12:35:00
6,1
1
27,4
09:35 Uhr

4
11.8
08:50 Uhr
7.5
16:00 Uhr
10.8
04:10 Uhr
0
00:00 Uhr

00:00 Uhr

00:00 Uhr

00:00 Uhr
24
Zeitraffer
16:54
23.7
18:45 Uhr
10.2
04:15 Uhr

90
05:05 Uhr
55
10:35 Uhr
1024.0
00:00 Uhr

1021.8
20:10 Uhr
1023.1
2,400
21:30 Uhr
0,400
2.921
250
972
10:30 Uhr
5.2
10:30 Uhr

04:30:00
4,7
1
22,5
10:35 Uhr

4
16.8
22:15 Uhr
8.0
04:15 Uhr
10.2
04:15 Uhr
4
22:05 Uhr

00:00 Uhr

00:00 Uhr

00:00 Uhr
25
Zeitraffer
16:53
27.6
15:55 Uhr
18.2
04:15 Uhr

88
02:35 Uhr
46
16:15 Uhr
1021.7
00:45 Uhr

1019.1
20:05 Uhr
1020.5
0,000
00:45 Uhr
0,000
5.105
382
1041
11:30 Uhr
6.0
12:30 Uhr

08:10:00
8,4
2
27,4
12:45 Uhr

4
18.2
09:45 Uhr
14.6
16:15 Uhr
17.4
07:20 Uhr
8
11:05 Uhr

00:00 Uhr

00:00 Uhr

00:00 Uhr
26
Zeitraffer
16:53
29.9
15:30 Uhr
16.4
04:15 Uhr

89
05:45 Uhr
44
18:00 Uhr
1019.4
00:06 Uhr

1010.6
23:50 Uhr
1014.7
0,000
00:06 Uhr
0,000
4.293
312
1021
11:55 Uhr
5.9
12:15 Uhr

07:10:00
6,4
1
35,4
15:00 Uhr

5
19.5
09:30 Uhr
13.7
18:00 Uhr
16.4
04:15 Uhr
8
12:05 Uhr

00:00 Uhr

00:00 Uhr

00:00 Uhr
27
Zeitraffer
16:52
31.7
15:40 Uhr
16.3
05:40 Uhr

93
05:45 Uhr
35
16:20 Uhr
1010.7
00:10 Uhr

1007.0
17:30 Uhr
1009.0
0,000
00:00 Uhr
0,000
5.613
434
958
14:05 Uhr
6.2
12:20 Uhr

10:45:00
5,4
1
30,6
18:10 Uhr

5
17.9
08:55 Uhr
13.8
16:45 Uhr
16.3
05:40 Uhr
7
09:05 Uhr

00:00 Uhr

00:00 Uhr

00:00 Uhr
28
Zeitraffer
16:52
30.2
12:25 Uhr
18.9
23:55 Uhr

84
23:55 Uhr
44
13:35 Uhr
1012.3
23:10 Uhr

1008.6
00:00 Uhr
1010.4
2,400
15:00 Uhr
0,400
4.648
326
1162
13:25 Uhr
7.7
13:25 Uhr

07:30:00
7,4
2
41,8
15:00 Uhr

6
19.1
09:35 Uhr
15.5
14:05 Uhr
18.7
05:25 Uhr
8
00:00 Uhr

00:00 Uhr

00:00 Uhr

00:00 Uhr
29
Zeitraffer
16:51
25.2
15:40 Uhr
15.7
22:25 Uhr

87
22:30 Uhr
34
16:50 Uhr
1012.2
00:00 Uhr

1007.8
16:40 Uhr
1010.1
4,800
17:55 Uhr
1,000
4.013
344
1076
15:00 Uhr
6.6
13:40 Uhr

07:05:00
4,6
1
38,6
17:15 Uhr

5
16.3
00:10 Uhr
8.0
16:50 Uhr
14.7
17:50 Uhr
7
00:00 Uhr

00:00 Uhr

00:00 Uhr

00:00 Uhr
30
Zeitraffer
16:50
24.8
15:40 Uhr
13.6
05:30 Uhr

86
01:00 Uhr
33
16:45 Uhr
1008.4
00:25 Uhr

1006.0
18:20 Uhr
1007.2
0,000
00:00 Uhr
0,000
5.765
458
1093
13:10 Uhr
6.9
13:35 Uhr

11:05:00
9,8
2
46,7
10:15 Uhr

6
12.9
00:00 Uhr
7.0
18:15 Uhr
12.4
04:35 Uhr
3
00:00 Uhr

00:00 Uhr

00:00 Uhr

00:00 Uhr
Stationsstandorte || Wetterblog || Wissenswertes || Downloads || Seitenhistorie || Partner || Impressum / Datenschutz